Preview of NWS' New Version of Forecast
This preview is not operational and should not be used for support decisions.

Regional Weather Roundup (RWR)

Issued by Philadelphia/Mt Holly (PHI)

                            
000
ASUS41 KPHI 171712
RWRPHI

REGIONAL WEATHER ROUNDUP
NATIONAL WEATHER SERVICE MOUNT HOLLY NJ
100 PM EDT TUE SEP 17 2019

NOTE:  "FAIR" INDICATES FEW OR NO CLOUDS BELOW 12,000 FEET WITH NO
SIGNIFICANT WEATHER AND/OR OBSTRUCTIONS TO VISIBILITY.

 * = STATION DOES NOT REPORT PRECIPITATION (E.G. RAIN, SNOW, ETC.) 
        OR FOG.

NJZ015>026-171800-
SOUTHERN NEW JERSEY
  
CITY           SKY/WX    TMP DP  RH WIND       PRES   REMARKS
POMONA         FAIR      75  51  43 E14G21    30.13S                  
WILDWOOD*      FAIR      74  54  49 NE16G22   30.13S                  
MILLVILLE      FAIR      78  52  40 NE12G20   30.12F                  
WRIGHTSTOWN    FAIR      76  48  36 NE5       30.14                   
MOUNT HOLLY    FAIR      75  50  41 N8        30.14S                  
TRENTON        FAIR      74  47  38 E9        30.14F                  

$$
NJZ001>014-171800-
NORTHERN NEW JERSEY
  
CITY           SKY/WX    TMP DP  RH WIND       PRES   REMARKS
SUSSEX         FAIR      72  46  39 MISG      30.16F                  
ANDOVER*         N/A     72  47  40 N6        30.17F                  
MORRISTOWN     SUNNY     73  50  43 NE3G12    30.15F                  
NEWARK         FAIR      75  43  31 NE12G20   30.14F                  
TETERBORO      FAIR      75  42  30 N8        30.13F                  
CALDWELL       FAIR      76  46  34 N6        30.15F                  
SOMERVILLE     FAIR      76  43  30 MISG      30.13F                  
ALLAIRE*       FAIR      72  44  36 NE13      30.15F                  
TOMS RIVER*    FAIR      74  50  42 E9        30.15S                  

$$
PAZ043-044-047-054-055-060>062-066>071-171800-
EASTERN PENNSYLVANIA
  
CITY           SKY/WX    TMP DP  RH WIND       PRES   REMARKS
PHILADELPHIA   FAIR      76  47  35 NE5       30.14F                  
NORTH PHILA    FAIR      77  49  37 NE10      30.16F                  
BLUE BELL*     FAIR      74  53  46 N6        30.15F                  
DOYLESTOWN     FAIR      76  48  37 VRB3      30.15F                  
QUAKERTOWN*    SUNNY     73  50  43 E7        30.16F                  
PERKASIE*      FAIR      72  48  43 NE8       30.17F                  
POTTSTOWN      FAIR      73  52  47 N8        30.17F                  
LANCASTER      FAIR      77  54  44 N10       30.15F                  
COATESVILLE    FAIR      73  52  46 VRB7      30.17S                  
WEST CHESTER   FAIR      73  48  40 NE5       30.15F                  
READING        FAIR      74  53  48 N8        30.15S                  
ALLENTOWN      FAIR      75  49  39 N8        30.16F                  
QN CITY/ALNTWN FAIR      73  48  40 NE7       30.17F                  
MOUNT POCONO   FAIR      68  39  34 N10       30.19F                  
HAZLETON       FAIR      68  46  45 N5        30.23S                  
LEHIGHTON      FAIR      72  46  40 CALM      30.17F                  
WILKES BARRE   FAIR      73  46  38 VRB6      30.18F                  

$$
DEZALL-MDZ008-012-015-019-020-171800-
DELAWARE AND EASTERN MARYLAND
  
CITY           SKY/WX    TMP DP  RH WIND       PRES   REMARKS
WILMINGTON     FAIR      78  54  43 NE10      30.14F                  
DOVER          MOSUNNY   76  59  54 NE7       30.17                   
CHESWOLD       CLOUDY    75  59  57 E8        30.13S                  
GEORGETOWN     CLOUDY    77  60  55 NE14      30.12S                  
EASTON         PTSUNNY   77  59  53 NE7       30.16S                  
STEVENSVILLE   CLOUDY    77  57  50 NE7       30.13S                  
PATUXENT       PTSUNNY   80  59  48 E13       30.10F                  
OCEAN CITY     FAIR      75  61  61 NE13G24   30.11S                  
WALLOPS ISLAND CLOUDY    75  64  68 NE18      30.09S                  
CAMBRIDGE      CLOUDY    77  59  53 E10G17    30.10F                  
SALISBURY      PTSUNNY   78  59  51 NE18      30.10S                  

$$
PAZ001-021-NYZ056-072-MDZ011-DCZ001-171800-
OTHER NEARBY LOCATIONS
  
CITY           SKY/WX    TMP DP  RH WIND       PRES   REMARKS
HARRISBURG     FAIR      77  51  40 E6        30.15F                  
STATE COLLEGE  SUNNY     70  50  49 NE8       30.20F                  
WILLIAMSPORT   FAIR      72  45  37 CALM      30.17F                  
BINGHAMTON     FAIR      68  46  45 N10       30.21F                  
NEW YORK CITY  FAIR      75  43  31 NE8       30.16F                  
BALTIMORE      PTSUNNY   78  56  46 E13       30.13S                  
WASHINGTON DC  PTSUNNY   80  59  48 NE10      30.13S                  

$$